Flag for Sweden Weather past 2 weeks in Karlstad, Sweden

Now
55 °F

Passing clouds.


Feels Like: 54 °F
Forecast: 51 / 60 °F
Wind: 7 mph from North

Location: Karlstad

Current Time: Jul 30, 2015 at 8:41:35 AM

Latest Report: Jul 30, 2015 at 7:50 AM


Visibility: N/A

Pressure: 29.45 "Hg

Humidity: 94%

Dew point: 54 °F

Location of KarlstadLocation

Historic Weather in Karlstad — Graph

°F

Karlstad temperature yesterday

Maximum temperature yesterday: 61 °F (at 11:20 AM)
Minimum temperature yesterday: 55 °F (at 6:50 AM)
Average temperature yesterday: 58 °F

Past Weeks' High & Low Weather Summary

 TemperatureHumidityPressure
High70 °F (Jul 15, 1:50 PM)100% (Jul 15, 7:50 AM)30.04 "Hg (Jul 15, 7:50 AM)
Low46 °F (Jul 25, 4:50 AM)43% (Jul 17, 4:20 PM)29.30 "Hg (Jul 26, 12:20 PM)
Average58 °F81%29.67 "Hg
* Reported Jul 15 7:20 AM — Jul 30 7:20 AM, Karlstad, Weather by CustomWeather, © 2015

Note: Actual official high and low records may vary slightly from our data, if they occured in-between our weather recording intervals... More about our weather records

Advertising

Karlstad weather history for previous 24 hours

 ConditionsComfort  
Time TempWeatherWind HumidityBarometerVisibility
7:20 AM
Thu, Jul 30
54 °FScattered clouds.7 mph100%29.45 "HgN/A
6:50 AM54 °FPartly sunny.8 mph100%29.45 "HgN/A
6:20 AM54 °FPartly sunny.7 mph100%29.45 "HgN/A
5:50 AM54 °FScattered clouds.6 mph100%29.45 "HgN/A
5:20 AM54 °FPassing clouds.6 mph100%29.42 "HgN/A
4:50 AM55 °FPartly cloudy.7 mph94%29.42 "HgN/A
4:20 AM55 °FPartly cloudy.7 mph94%29.42 "HgN/A
3:50 AM54 °FPartly cloudy.6 mph100%29.42 "HgN/A
3:20 AM54 °FPassing clouds.3 mph100%29.42 "HgN/A
2:50 AM55 °FPassing clouds.7 mph94%29.42 "HgN/A
2:20 AM55 °FPassing clouds.6 mph100%29.42 "Hg6 mi
1:50 AM55 °FPassing clouds.3 mph94%29.42 "HgN/A
1:20 AM55 °FPartly cloudy.3 mph94%29.45 "HgN/A
12:50 AM55 °FMostly cloudy.6 mph100%29.45 "HgN/A
12:20 AM55 °FRain. Partly cloudy.5 mph100%29.45 "HgN/A
11:50 PM
Wed, Jul 29
55 °FPassing clouds.5 mph100%29.45 "HgN/A
11:20 PM55 °FRain. Passing clouds.No wind100%29.45 "Hg2 mi
10:50 PM55 °FPartly cloudy.2 mph100%29.45 "HgN/A
10:20 PM55 °FBroken clouds.2 mph100%29.45 "HgN/A
9:50 PM55 °FDrizzle. Broken clouds.No wind100%29.45 "HgN/A
9:20 PM55 °FLight rain. Broken clouds.2 mph100%29.45 "HgN/A
8:50 PM55 °FLight rain. Broken clouds.No wind100%29.42 "HgN/A
7:50 PM57 °FHeavy rain. Partly sunny.7 mph100%29.42 "Hg2 mi
7:20 PM59 °FRain. Broken clouds.3 mph94%29.42 "HgN/A
6:50 PM59 °FLight rain. Broken clouds.5 mph94%29.45 "HgN/A
6:20 PM59 °FScattered clouds.6 mph94%29.45 "HgN/A
5:50 PM59 °FLight rain. Broken clouds.6 mph94%29.45 "HgN/A
5:20 PM59 °FLight rain. Scattered clouds.7 mph94%29.45 "HgN/A
4:50 PM59 °FPassing clouds.7 mph94%29.45 "HgN/A
4:20 PM59 °FLight rain. Passing clouds.7 mph94%29.45 "HgN/A
3:50 PM59 °FLight rain. Partly sunny.8 mph94%29.45 "HgN/A
3:20 PM59 °FLight rain. Partly sunny.9 mph94%29.45 "HgN/A
2:50 PM59 °FRain showers. Broken clouds.12 mph88%29.45 "HgN/A
2:20 PM61 °FBroken clouds.15 mph83%29.42 "HgN/A
1:50 PM61 °FBroken clouds.16 mph83%29.42 "HgN/A
1:20 PM61 °FBroken clouds.14 mph83%29.42 "HgN/A
12:50 PM61 °FPartly sunny.14 mph88%29.45 "HgN/A
12:20 PM61 °FPartly sunny.14 mph88%29.42 "HgN/A
11:50 AM61 °FDrizzle. Broken clouds.13 mph83%29.45 "HgN/A
11:20 AM61 °FPartly sunny.12 mph88%29.45 "HgN/A
10:50 AM59 °FPartly sunny.10 mph94%29.45 "HgN/A
10:20 AM59 °FPartly sunny.12 mph88%29.45 "HgN/A
9:20 AM57 °FLow clouds.13 mph94%29.45 "HgN/A
8:50 AM57 °FBroken clouds.12 mph94%29.45 "HgN/A
8:20 AM57 °FBroken clouds.12 mph94%29.45 "HgN/A
Weather by CustomWeather, © 2015

See weather overviewHow to use our weather pages